This is the latest recevied weather packets stored in our database for station/object N9PBY-2. If no packets are shown the sender has not sent any weather packets the latest 10 day(s).
| Time | Temp. | Humidity | Pressure | Rain* | Wind** | Luminosity | Snow |
|---|---|---|---|---|---|---|---|
| 1778184606 | 8.33° C | 43% | 1011.2 hPa | 0 mm | - | - | - |
| 1778184007 | 8.33° C | 41% | 1011.2 hPa | 0 mm | - | - | - |
| 1778183406 | 8.89° C | 40% | 1011.3 hPa | 0 mm | - | - | - |
| 1778182807 | 9.44° C | 41% | 1011.2 hPa | 0 mm | - | - | - |
| 1778182206 | 9.44° C | 40% | 1011.1 hPa | 0 mm | - | - | - |
| 1778181607 | 10° C | 41% | 1011.1 hPa | 0 mm | - | - | - |
| 1778181007 | 10° C | 39% | 1011.1 hPa | 0 mm | - | - | - |
| 1778180406 | 11.11° C | 36% | 1011 hPa | 0 mm | - | - | - |
| 1778179806 | 11.67° C | 35% | 1011.2 hPa | 0 mm | - | - | - |
| 1778179207 | 11.67° C | 34% | 1011.2 hPa | 0 mm | - | - | - |
| 1778178607 | 12.22° C | 33% | 1011.4 hPa | 0 mm | - | - | - |
| 1778178006 | 12.22° C | 34% | 1011.5 hPa | 0 mm | - | - | - |
| 1778177406 | 12.22° C | 33% | 1011.6 hPa | 0 mm | - | - | - |
| 1778176807 | 12.22° C | 35% | 1011.8 hPa | 0 mm | - | - | - |
| 1778176207 | 12.78° C | 34% | 1011.8 hPa | 0 mm | - | - | - |
| 1778175607 | 13.33° C | 34% | 1012.1 hPa | 0 mm | - | - | - |
| 1778175006 | 12.22° C | 38% | 1012.3 hPa | 0 mm | - | - | - |
| 1778174406 | 11.11° C | 35% | 1012.4 hPa | 0 mm | - | - | - |
| 1778173806 | 10.56° C | 34% | 1012.5 hPa | 0 mm | - | - | - |
| 1778173207 | 10.56° C | 35% | 1012.6 hPa | 0 mm | - | - | - |
| 1778172606 | 10.56° C | 38% | 1012.7 hPa | 0 mm | - | - | - |
| 1778172007 | 9.44° C | 35% | 1012.8 hPa | 0 mm | - | - | - |
| 1778171407 | 10° C | 36% | 1012.9 hPa | 0 mm | - | - | - |
| 1778170807 | 10° C | 38% | 1013 hPa | 0 mm | - | - | - |
| 1778170206 | 9.44° C | 36% | 1013.1 hPa | 0 mm | - | - | - |
* Rain latest hour (hover to see other rain measurements)
** Current wind speed in m/s (hover to see current wind gust speed)